SKYNET 5A

导读 | 豆包AI

SKYNET 5A(天网-5A)是英国于2007年3月11日发射的首颗第5代军用通信卫星,由EADS Astrium公司为英国国防部设计建造,阿里安-5ECA火箭在法属圭亚那库鲁基地执行发射任务。它作为英国“天网-5”卫星网的组成部分,通信容量达前代“天网-4”卫星的5倍,具备抗干扰、防核攻击能力,可为多国军方提供可靠通信服务。

基本信息
目录编号:
30794
目录名称:
SKYNET 5A
国际标识:
2007-007B
轨道中心:
EARTH
卫星名称:
SKYNET 5A
卫星全名:
--
卫星状态:
在轨 (已飞行6991 天)
发射日期:
2007-03-11 UTC
国别 :
英国 (GB)
星等 :
--
轨道信息
数据来源 国际轨道数据 AOE轨道数据
星历时间 2026-05-01T06:24:19+0800
9小时前
查看轨道信息
2026-05-01T05:00:00+0800
10小时前
查看轨道信息
半长轴 42164.84km 42164.84km
偏心率 0.0004068 0.0004142
轨道倾角 5.182° 5.182°
近地点辐角 336.083° 333.892°
升交点赤经 74.299° 74.304°
平近点角 239.816° 220.864°
近地点 35769.55km 35769.238km
远地点 35803.856km 35804.168km
周期 1436.102分钟 1436.102分钟
每日圈数 1.002714 1.002714
详细信息
使用方式:
暂无
2D轨道图
3D轨道图
轨道高度分析图
轨道倾角分析图
轨道综合分析图
查看轨道综合分析图